sat.trackr.live / text

‹ back to catalog

HULIANWANG DIGUI-78

NORAD 65310 · 2025-187F

PAYLOAD ACTIVE UNKNOWN

§ Identity

Operator
Country
PRC
Launch date
2025-08-25
Launch site
WSC
Launch vehicle
Mass (kg)
RCS (m²)

External: N2YO · Heavens-Above · Gunter

§ Orbital elements

Epoch: 2026-09-20T23:11:39.427584Z

Period
108.33 min
Inclination
50.0101°
Eccentricity
0.0000735
Mean motion
13.29325492 rev/d
Perigee alt
1,148.8 km
Apogee alt
1,149.9 km
Semi-major
7,527.4 km
B*
5.2721e-5
RAAN
222.3351°
Arg perigee
0.7987°
Mean anomaly
359.2886°
Rev number
5,244

§ Raw data

HULIANWANG DIGUI-781 65310U 25187F   26263.96642856 -.00000100  00000+0  52721-4 0  99952 65310  50.0101 222.3351 0000735   0.7987 359.2886 13.29325492 52444

JSON: /api/v1/satellites/65310 · /tle

For live sub-satellite position, see the globe view (requires WebGL).

§ Visibility from observer

Set your observer location to see the next 7 days of passes ≥ 10°. The values pass through the URL so the page stays shareable.

No JS? Fill the form by hand. The geolocation button needs JavaScript.